Location: Koszewko
(53.2876°N, 14.9061°E)
Time: 23:22:33
(UTC+00:00)

CENTAUR R/B - Pass Details

Date: 03 March 2021
Orbit: 742 x 1446 km, 63.4° (Epoch: 31 March)

Event Time Altitude Azimuth Distance (km) Brightness Sun altitude
Exits shadow 22:41:39 26° 38° (NE) 2,132 4.4 -42.8°
Drops below altitude 10° 22:45:08 10° 51° (NE) 3,237 5.4 -42.8°
Sets 22:48:17 0° 57° (ENE) 4,303 6.1 -42.9°
